Home   Weather   Kolonia   Past weeks

Flag for Micronesia Past Weather in Kolonia, Pohnpei, Micronesia — Yesterday and Last 2 Weeks

Now
85 °F

More clouds than sun.


Feels Like: 93 °F
Forecast: 80 / 85 °F
Wind: 12 mph from East

Location: Pohnpei

Current Time: Apr 29, 2017 at 4:41:58 pm

Latest Report: Apr 29, 2017 at 3:51 pm


Visibility: 15 mi

Pressure: 29.82 "Hg

Humidity: 72%

Dew Point: 75 °F

Location of KoloniaLocation

Past Weather in Kolonia — Graph

°F

Kolonia Temperature Yesterday

Maximum temperature yesterday: 88 °F (at 10:53 am)
Minimum temperature yesterday: 82 °F (at 3:53 am)
Average temperature yesterday: 84 °F

High & Low Weather Summary for the Past Weeks

 TemperatureHumidityPressure
High91 °F (Apr 27, 12:50 pm)99% (Apr 20, 4:54 pm)29.97 "Hg (Apr 20, 4:54 pm)
Low74 °F (Apr 21, 5:54 am)57% (Apr 23, 3:53 pm)29.78 "Hg (Apr 16, 3:52 pm)
Average82 °F81%29.86 "Hg
* Reported Apr 14 2:54 pm — Apr 29 2:52 pm, Kolonia, Weather by CustomWeather, © 2017

Note: Actual official high and low records may vary slightly from our data, if they occured in-between our weather recording intervals... More about our weather records

Advertising

Kolonia Weather History for the Previous 24 Hours

Scroll right to see more
 ConditionsComfort  
Time TempWeatherWind HumidityBarometerVisibility
2:52 pm
Sat, Apr 29
86 °FBroken clouds.14 mph70%29.83 "Hg15 mi
1:53 pm87 °FMore clouds than sun.7 mph73%29.85 "Hg15 mi
12:54 pm88 °FMore clouds than sun.12 mph65%29.88 "Hg15 mi
11:51 am86 °FCloudy.6 mph72%29.90 "Hg15 mi
10:53 am85 °FCloudy.10 mph73%29.91 "Hg15 mi
9:53 am85 °FMore clouds than sun.13 mph74%29.93 "Hg15 mi
8:54 am88 °FMore clouds than sun.8 mph68%29.92 "Hg15 mi
7:52 am84 °FBroken clouds.5 mph73%29.92 "Hg15 mi
6:52 am81 °FMore clouds than sun.12 mph79%29.90 "Hg15 mi
5:52 am81 °FMostly cloudy.6 mph79%29.88 "Hg15 mi
4:52 am82 °FPartly cloudy.10 mph75%29.89 "Hg15 mi
3:54 am82 °FPartly cloudy.9 mph75%29.85 "Hg15 mi
2:54 am82 °FPartly cloudy.6 mph75%29.85 "Hg15 mi
1:53 am82 °FMostly cloudy.7 mph75%29.86 "Hg15 mi
12:51 am82 °FOvercast.7 mph75%29.88 "Hg15 mi
11:51 pm
Fri, Apr 28
82 °FPartly cloudy.6 mph77%29.90 "Hg15 mi
10:54 pm83 °FPartly cloudy.8 mph76%29.91 "Hg15 mi
9:50 pm83 °FPassing clouds.12 mph77%29.90 "Hg15 mi
8:50 pm83 °FOvercast.8 mph80%29.89 "Hg15 mi
7:51 pm82 °FSprinkles. Overcast.6 mph84%29.88 "Hg12 mi
6:52 pm83 °FMostly cloudy.8 mph77%29.86 "Hg15 mi
5:50 pm83 °FPartly sunny.7 mph80%29.85 "Hg15 mi
4:50 pm85 °FBroken clouds.10 mph74%29.83 "Hg15 mi
Weather by CustomWeather, © 2017

See weather overviewHow to use our weather pages